Location: Zagreb
(45.8000°N, 16.0000°E)
Time: 15:37:45
(UTC+02:00)

Transit 2A - Pass Details

Date: 12 August 2022
Orbit: 601 x 956 km, 66.7° (Epoch: 25 September)

Event Time Altitude Azimuth Distance (km) Brightness Sun altitude
Rises 18:46:11 0° 338° (NNW) 2,867 9.4 13.1°
Reaches altitude 10° 18:50:13 10° 15° (NNE) 1,955 8.1 12.4°
Maximum altitude 18:51:28 11° 31° (NNE) 1,890 7.9 12.2°
Drops below altitude 10° 18:52:43 10° 48° (NE) 1,963 7.8 12.0°
Sets 18:56:47 0° 85° (E) 2,904 8.4 11.3°
